Regional Weather Roundup
Issued by NWS

Home | Current Version | Previous Version | Text Only | Print | Product List | Glossary Off
Versions: 1 2 3 4 5 6 7 8 9 10 11 12 13 14 15 16 17 18 19 20 21 22 23 24 25 26 27

000
ASUS45 KCYS 300910
RWRWY

WYOMING REGIONAL WEATHER ROUNDUP
NATIONAL WEATHER SERVICE CHEYENNE WY
300 AM MDT FRI SEP 30 2016

NOTE:  "FAIR" INDICATES FEW OR NO CLOUDS BELOW 12,000 FEET
WITH NO SIGNIFICANT WEATHER AND/OR OBSTRUCTIONS TO VISIBILITY.

WYZ001-301000-
YELLOWSTONE NATIONAL PARK

CITY           SKY/WX    TMP DP  RH WIND       PRES   REMARKS
LK YELLOWSTONE   N/A     38  37  97 CALM      30.36F
W YELLOWSTONE  NOT AVBL

$$
WYZ002>013-054>058-071-098>099-301000-
NORTHERN WYOMING

CITY           SKY/WX    TMP DP  RH WIND       PRES   REMARKS
JACKSON        MOCLDY    43  43 100 CALM      30.33S
CODY           FAIR      62  42  47 W18       30.15F
GREYBULL       FAIR      56  53  90 SW3       30.11S
WORLAND        FAIR      53  48  83 CALM      30.12F
SHERIDAN       FAIR      53  48  83 SW6       30.05F
BUFFALO        FAIR      60  43  53 W9        30.12S
GILLETTE       FAIR      59  49  69 S12       30.10F
HULETT         FAIR      66  45  45 S9        30.15S
NEWCASTLE      FAIR      61  41  48 SE6       30.19S

$$
WYZ014>020-022>026-101>103-301000-
CENTRAL WYOMING

CITY           SKY/WX    TMP DP  RH WIND       PRES   REMARKS
BIG PINEY      CLOUDY    40  38  93 E6        30.34S
PINEDALE       FAIR      36  36 100 NW5       30.35S WCI  32
DUBOIS         FAIR      43  37  81 W14       30.30F
LANDER         FAIR      51  44  77 CALM      30.21F
RIVERTON       FAIR      51  47  86 W7        30.21F
CASPER         FAIR      59  48  67 S16       30.21F
DOUGLAS        FAIR      50  43  77 S3        30.20F

$$
WYZ021-027>030-104>119-301000-
SOUTHERN WYOMING

CITY           SKY/WX    TMP DP  RH WIND       PRES   REMARKS
EVANSTON       CLOUDY    50  42  74 S8        30.34S
FORT BRIDGER   FAIR      49  40  70 SW7       30.36S
ROCK SPRINGS   MOCLDY    51  44  77 SW6       30.32S
DIXON          CLOUDY    57  46  67 S7        30.38S
RAWLINS        FAIR      54  47  77 SW12      30.33S
SARATOGA       CLOUDY    52  45  76 SW7       30.36S
LARAMIE        CLOUDY    50  44  80 CALM      30.33F
CHEYENNE       FAIR      52  43  71 CALM      30.26S
TORRINGTON     FAIR      51  41  68 E10       30.18F
PINE BLUFFS    FAIR      46  39  76 S6        30.23F

$$




USA.gov is the U.S. government's official web portal to all federal, state and local government web resources and services.